Погода в Иэме

Погода в Иэме : погода сейчас, прогноз погоды и архив. Всё, что Вы хотите узнать о погоде в Иэме!

Поиск расширенной информации на нашем сайте:

Другие новости

Новости СМИ2

Главная страница сайта

Новости сайта

03.07.2017

Напоминаем, что на нашем специализированном сайте Метеоцентр.Азия вы можете получить высокодетализированные автоматические прогнозы погоды по пунктам России, СНГ и мира в авиационном формате (включающие направление и скорость ветра, видимость, явления погоды, количество и форму облачности, нижнюю и верхнюю границу облачности).


Погода в Иэме - сегодня

Время (UTC), дата Ветер
(°,м/с) 
Видим.   Явления Облачность Т
(°С)
Тd
(°С)
f(%) Тe
(°С)
Pmin
(гПа)
dP
(гПа)
Po
(мм)
O2
(г/м3)
Тmin Tmax R s Состояние
почвы
09 14.02.18 тихо ()   20000 м    ясно 
-42.5 -45 77 -43  1020.6  1.7  693  333    -41       
15 14.02.18 тихо ()   20000 м    6/0 верхняя 
[Cs]
-44 -47 72 -44  1022.1  0.8  694  335           
21 14.02.18 тихо ()   20000 м    3/0 верхняя 
[Cs]
-40.5 -43.3 74 -41  1021.5  0.7  694  330  -45.4      31  равномерный
сухой снег
100% 
03 15.02.18 тихо ()   20000 м    ясно 
-38.3 -42.3 66 -38  1021.8  0.8  695  328           
15 15.02.18 тихо ()   20000 м    ясно 
-44.3 -47 74 -44  1026.5  0.9  697  337           
21 15.02.18 тихо ()   20000 м    ясно 
-44.5 -47 76 -45  1027  0.4  697  337  -45      31  равномерный
сухой снег
100% 
03 16.02.18 тихо ()   20000 м    4/0 верхняя 
[Cs]
-38 -40.9 74 -38  1024.3  0.2  697  328           
15 16.02.18 тихо ()   10 км  слаб. снег  10/0 средняя 
[As op]
-33.4 -36.3 75 -33  1021.9  -0.4  697  322           
21 16.02.18 тихо ()   20000 м  слаб. снег  10/0 средняя 
[As op]
-32.5 -35.5 75 -33  1020.9  -1.6  696  320  -36    0.3  31  равномерный
сухой снег
100% 
03 17.02.18 тихо ()   20000 м  слаб. снег  10/0 средняя 
[Ac und]
-30.5 -33.6 74 -31  1020.5  0.5  696  318           
15 17.02.18 тихо ()   20000 м    6/0 верхняя 
[Cs]
-40.5 -43.3 74 -41  1026.5  0.7  698  332           
21 17.02.18 тихо ()   20000 м    3/0 верхняя 
[Cs]
-43 -45.6 75 -43  1028.3  0.6  698  336  -44      31  равномерный
сухой снег
100% 
03 18.02.18 тихо ()   20000 м    4/0 верхняя 
[Cs]
-39.5 -42.3 75 -40  1026.6  -0.2  698  331           
15 18.02.18 тихо ()   20000 м    ясно 
-45.4 -47.8 77 -45  1028.4  -0.4  698  339           
21 18.02.18 тихо ()   20000 м    3/0 верхняя 
[Cs]
-46.8 -49.6 74 -47  1028.4  -0.7  697  341  -48      31  равномерный
сухой снег
100% 
03 19.02.18 тихо ()   20000 м  {снег}  4/0 верхняя 
[Cs]
-38 -41.6 69 -38  1023  -1.3  696  328           
15 19.02.18 тихо ()   20000 м    3/0 верхняя 
[Cs]
-44.5 -47 76 -45  1024.3  -1  695  337           
21 19.02.18 тихо ()   20000 м    4/0 верхняя 
[Cs]
-46 -48.6 75 -46  1023.2  -1.5  694  338  -46      32  равномерный
сухой снег
100% 
03 20.02.18 тихо ()   20000 м    8/0 верхняя 
[Cs]
-40.5 -43.3 74 -41  1019.5  -1.2  693  330           
15 20.02.18 тихо ()   20000 м  слаб. снег  8/0 верхняя 
[Cs]
-43 -45.6 75 -43  1019.6  -0.3  692  333           
21 20.02.18 тихо ()   20000 м  {снег}  4/0 верхняя 
[Cs]
-45 -47.8 74 -45  1020.6  0.1  692  336  -45.5    0.0  32  равномерный
сухой снег
100% 
03 21.02.18 тихо ()   20000 м    ясно 
-39.5 -42.3 75 -40  1019.1  0.7  693  328           
09 21.02.18 080 (В) 20000 м    ясно 
-34 -36.8 76 -35  1018.5  1.5  694  321    -34       
15 21.02.18 тихо ()   20000 м    ясно 
-44 -47 72 -44  1025  2.1  696  336           
21 21.02.18 тихо ()   20000 м    ясно 
-46 -48.6 75 -46  1028  1.9  697  340  -46.5      32  равномерный
сухой снег
100% 
Время (UTC), дата Ветер
(°,м/с) 
Видим.   Явления Облачность Т
(°С)
Тd
(°С)
f(%) Тe
(°С)
Pmin
(гПа)
dP
(гПа)
Po
(мм)
O2
(г/м3)
Тmin Tmax R s Состояние
почвы

Для получения пояснительной информации подведите курсор к названию столбца.

ПОГОДА в Иэме - архив

Всё, что Вы хотите узнать о погоде в Иэме - удобно и подробно!

Выберите нужную дату (начиная с 1 января 2015* года) и нажмите кнопку "Найти".
Будут отображены архивные сводки погоды по пункту Иэма, начиная с указанной даты.


Отображать данные в формате CSV (для использования в таблицах Excel)


Внимание! Наш архив погоды предназначен исключительно для личного некоммерческого использования в познавательных целях. Если Вам необходимы официальные справки о состоянии погоды (для производственных, юридических, коммерческих и т.п. целей), обращайтесь в органы Росгидромета.

*Примечание: данная дата относится к архиву по метеостанциям СССР (Россия, СНГ, Балтия).
Архив по метеостанциям Зарубежной Европы и Азии (кроме Китая) хранится 10 дней, по другим регионам земного шара (Китай, Африка, Америка, Австралия, Океания) - 1 день.

Иэма - район местоположения метеостанции


Название, широта, долгота, высота метеостанции:
Иэма 65.2°ш. 135.9°д. 676 м над ур. моря [Российская Федерация]

Дополнительная информация

В oтличие oт бoльшинства пoгoдных сайтoв мы публикуем пoдрoбную метеoинфoрмацию в детальнoм прoфессиoнальнoм фoрмате.

Характеристики температуры и влажнoсти вoздуха измеряются на высoте 2 м в тени вдали oт зданий и деревьев.
Скoрoсть ветра измеряется на высoте 10 м (на урoвне рoста челoвека скoрoсть ветра ниже в 1.5-2 раза). Если метеoстанция нахoдится в гoрoде или в лесу, тo скoрoсть ветра занижена на 2-4 м/с пo сравнению с oткрытым местoм. Скoрoсть ветра над акватoриями крупных рек и oзёр, а также на вершинах хoлмoв на 2-5 м/с выше, чем в oбычных услoвиях.
Атмoсфернoе давление в разных тoчках местнoсти мoжет значительнo oтличаться oт давления на метеoстанции, в зависимoсти oт услoвий рельефа (при пoдъёме на 10 м давление пoнижается примернo на 1 мм рт.ст.).